Regional Weather Roundup
Issued by NWS

Home | Current Version | Previous Version | Graphics & Text | Print | Product List | Glossary On
Versions: 1 2 3 4 5 6 7 8 9 10 11 12 13 14 15 16 17 18 19 20 21 22 23 24 25 26 27 28 29 30 31 32 33 34 35 36 37 38 39 40 41 42 43 44 45 46 47 48 49 50
000
ASUS43 KTOP 290508
RWRKS

WEATHER ROUNDUP FOR KANSAS
NATIONAL WEATHER SERVICE GOODLAND KS
1200 AM CDT MON MAY 29 2017

NOTE:  "FAIR" INDICATES FEW OR NO CLOUDS BELOW 12,000 FEET WITH NO
SIGNIFICANT WEATHER AND/OR OBSTRUCTIONS TO VISIBILITY.

KSZ001>006-013>018-027>032-041>047-290600-
NORTHWEST KANSAS

CITY           SKY/WX    TMP DP  RH WIND       PRES   REMARKS
GOODLAND       CLEAR     54  48  80 N8        30.14S
HAYS           CLEAR     61  52  72 W5        30.02S
HILL CITY      CLEAR     57  53  86 NW5       30.04S
RUSSELL        CLEAR     60  52  74 SW7       29.99S
$$

KSZ061>065-074>080-084>089-290600-
SOUTHWEST KANSAS

CITY           SKY/WX    TMP DP  RH WIND       PRES   REMARKS
DODGE CITY     CLEAR     59  44  57 SW6       30.08R
ELKHART          N/A     60  36  40 MISG        N/A
GARDEN CITY    CLEAR     59  40  49 SW6       30.09S
GREAT BEND     CLEAR     59  49  69 NW6       30.02S
LIBERAL        CLEAR     56  49  77 W6        30.11S
PRATT          CLEAR     55  43  65 SW3       30.03S
$$

KSZ066>073-081>083-090>101-290600-
SOUTHEAST KANSAS

CITY           SKY/WX    TMP DP  RH WIND       PRES   REMARKS
CHANUTE        CLEAR     59  52  77 S7        29.99R
COFFEYVILLE    CLOUDY    60  56  86 CALM      30.00R
HUTCHINSON     CLEAR     56  50  80 CALM      29.99S
MEDICINE LODGE   N/A     60  48  64 CALM      30.04R
NEWTON         CLEAR     64  47  53 SW7       30.00R
PARSONS        CLEAR     56  53  90 CALM      30.01R
WICHITA INTL   CLEAR     57  50  77 S6        30.00R
WICHITA JABRA  CLEAR     65  47  52 SW6       30.00R
WICHITA MCCONL CLEAR     61  48  62 SW6       30.00R
WINFIELD       CLEAR     59  51  75 S3        30.03R
$$

KSZ007>012-019>026-033>040-048>060-102>105-290600-
NORTHEAST KANSAS

CITY           SKY/WX    TMP DP  RH WIND       PRES   REMARKS
CONCORDIA      CLEAR     60  51  72 W5        29.97S
EMPORIA        CLEAR     64  52  64 W6        29.97R
LAWRENCE       CLEAR     59  55  87 NW6       29.93R
MANHATTAN      CLEAR     57  54  89 SW5       29.95R
MARYSVILLE     CLEAR     57  50  77 CALM      29.94F
OLATHE IND     CLEAR     64  51  62 W5        29.94R
OLATHE EXE     CLEAR     66  51  58 CALM      29.93R
SALINA         CLEAR     67  51  56 W7        29.97S
TOPEKA BILLARD CLEAR     63  55  75 CALM      29.93R
TOPEKA FORBES  CLEAR     62  53  72 NW5       29.93S
$$



USA.gov is the U.S. government's official web portal to all federal, state and local government web resources and services.